Tracking 35331 objects as of 14-Sep-2026
HD Live streaming from Space Station
objects crossing your sky now

STARLINK-32419

Track STARLINK-32419 now!
10-day predictions
STARLINK-32419 is classified as:


NORAD ID: 61637
Int'l Code: 2024-191S
Launch date: October 23, 2024
Source: United States (US)
Launch site: AIR FORCE EASTERN TEST RANGE (AFETR)
Your satellite tracking list
Your tracking list is empty




NASA's NSSDC Master Catalog

Two Line Element Set (TLE):
1 61637U 24191S   26257.12771701  .00000388  00000-0  23628-4 0  9992
2 61637  43.0006 170.4675 0000881 269.3201  90.7550 15.27580293106351
Source of the keplerian elements: AFSPC